Regional Weather Roundup
Issued by NWS

Home | Current Version | Previous Version | Text Only | Print | Product List | Glossary Off
Versions: 1 2 3 4 5 6 7 8 9 10 11 12 13 14 15 16 17 18 19 20 21 22 23 24 25 26 27 28 29 30 31 32 33 34 35 36 37 38 39 40 41 42 43 44 45 46 47 48 49 50

000
ASUS43 KDTX 261001
RWRMI
MICHIGAN HOURLY REGIONAL WEATHER ROUNDUP
NATIONAL WEATHER SERVICE DETROIT/PONTIAC MI
600 AM EDT THU APR 26 2018

NOTE: "FAIR" INDICATES FEW OR NO CLOUDS BELOW 12,000 FEET WITH NO
SIGNIFICANT WEATHER AND/OR OBSTRUCTION TO VISIBILITY.

MIZ047>049-052>055-059>063-066>070-074>076-081>083-261100-
SOUTHEAST LOWER MICHIGAN

CITY           SKY/WX    TMP DP  RH WIND       PRES   REMARKS
ADRIAN         CLOUDY    37  37 100 CALM      29.94R FOG
ALMA           FAIR      31  31 100 W3        29.94S
ANN ARBOR      FAIR      30  30 100 CALM      29.92S
BAD AXE        FAIR      33  27  80 CALM      29.91S
CARO           FAIR      28  26  94 CALM      29.92S FOG
DETROIT CITY   FAIR      39  34  82 W5        29.93R
DETROIT        FAIR      39  36  89 W6        29.93S FOG     WCI  35
FLINT          FAIR      34  33  96 W5        29.93S WCI  30
GROSSE ILE     FAIR      37  37  97 CALM      29.93R FOG
HILLSDALE      CLOUDY    37  37 100 CALM      29.91S FOG
HOWELL         FAIR      33  33 100 CALM      29.92S FOG

CITY           SKY/WX    TMP DP  RH WIND       PRES   REMARKS
JACKSON        FAIR      32  32 100 SW3       29.93S
LAMBERTVILLE   FAIR      37  35  90 CALM      29.93S FOG
LANSING        FAIR      34  34 100 CALM      29.94S
LAPEER         FAIR      32  32  99 CALM      29.92S FOG
MASON          FAIR      33  31  92 CALM      29.93S
MONROE         FOG       34  32  93 CALM      29.93R VSB 1/4
MT. CLEMENS    FAIR      36  36 100 W5        29.91R WCI  32
PONTIAC        FAIR      36  35  96 NW3       29.91R
PORT HOPE        N/A     33  29  85 W6        29.89R WCI  28
PORT HURON     FAIR      34  32  93 W3        29.92R
TRI CITIES     FAIR      33  29  85 W6        29.93S WCI  28
MIDLAND        FAIR      28  28 100 CALM      29.92F
TROY           FAIR      38  35  89 W5        29.94R WCI  35
SAGINAW HB     FAIR      32  30  93 SW3       29.93S
$$
MIZ043>046-050>051-056>058-064>065-071>073-077>080-261100-
SOUTHWEST LOWER MICHIGAN

CITY           SKY/WX    TMP DP  RH WIND       PRES   REMARKS
BATTLE CREEK   FAIR      35  32  88 CALM      29.94R
BENTON HARBOR  FAIR      30  27  88 CALM      29.95S
BIG RAPIDS     FAIR      27  25  89 CALM      29.93S
COLDWATER      FAIR      34  34 100 CALM      29.93S
FREMONT        FAIR      29  25  86 CALM      29.94S
HOLLAND        FAIR      33  29  85 CALM      29.95F
GRAND RAPIDS   FAIR      36  31  82 CALM      29.94S
IONIA          FAIR      34  32  92 CALM      29.93F
KALAMAZOO      FAIR      36  31  82 N5        29.94S WCI  32
LUDINGTON      FAIR      27  27 100 CALM      29.95S FOG
MARSHALL       FAIR      32  32  99 CALM      29.93S
MOUNT PLEASANT FAIR      33  32  96 CALM      29.93S
MUSKEGON       FAIR      31  26  82 CALM      29.95F
SOUTH HAVEN    FAIR      30  28  91 CALM      29.95F
$$
MIZ016>042-261100-
NORTHERN LOWER MICHIGAN

CITY           SKY/WX    TMP DP  RH WIND       PRES   REMARKS
ALPENA         FAIR      30  26  85 W6        29.90F WCI  24
BEAVER ISLAND  FAIR      27  26  95 CALM      29.92S
CADILLAC       FAIR      22  21  96 CALM      29.90F
CHARLEVOIX     FAIR      28  28 100 CALM      29.95F
FRANKFORT      FAIR      27  26  94 CALM      29.94S
GAYLORD        FAIR      25  23  92 CALM      29.89F
GRAYLING       FAIR      19  18  94 CALM      29.90S
HARBOR SPRINGS FAIR      29  28  98 CALM      29.92F
HOUGHTON LAKE  FAIR      29  24  82 NW5       29.91F WCI  24
MANISTEE       FAIR      25  24  96 CALM      29.94F
OSCODA         FAIR      29  24  83 W3        29.90S
PELLSTON       FAIR      23  21  92 CALM      29.92F
ROGERS CITY    FAIR      30  25  79 W6        29.91F WCI  24
TRAVERSE CITY  FAIR      28  25  88 CALM      29.92F
$$
MIZ007>008-015-261100-
EASTERN UPPER MICHIGAN

CITY           SKY/WX    TMP DP  RH WIND       PRES   REMARKS
KINROSS        FAIR      23  22  96 W7        29.90R WCI  15
MACKINAC ISLAN FAIR      32  28  82 W8        29.91S WCI  25
NEWBERRY       FAIR      27  25  94 SW6       29.89S WCI  20
MUNISING         N/A     36  25  64 SW10      29.86F WCI  28
$$
MIZ004>006-011>014-085-261100-
CENTRAL UPPER MICHIGAN

CITY           SKY/WX    TMP DP  RH WIND       PRES   REMARKS
MANISTIQUE     FAIR      29  27  94 SW3       29.89F
ESCANABA       FAIR      24  23  96 CALM      29.91F
MENOMINEE      FAIR      30  28  92 SW3       29.92F
SAWYER-GWINN   FAIR      28  22  79 SW3       29.87S
$$
MIZ001>003-009>011-084-261100-
WESTERN UPPER MICHIGAN

CITY           SKY/WX    TMP DP  RH WIND       PRES   REMARKS
IRON MOUNTAIN  FAIR      27  23  85 CALM      29.87S
HOUGHTON       FAIR      40  21  46 W12       29.81F WCI  33
COPPER HARBOR    N/A     40  19  43 VRB6      29.81F
IRONWOOD       FAIR      42  24  49 SW10      29.84F
$$

ABBREVIATIONS USED IN REMARKS
   TC - TEMPERATURE IN CELSIUS
  WCI - WIND CHILL INDEX
   HX - HEAT INDEX
  VSB - VISIBILITY





USA.gov is the U.S. government's official web portal to all federal, state and local government web resources and services.